カタログに戻る

COSMOS 2567

運用中ナビゲーションSSO
NORAD 55978·PAYLOAD·🇷🇺 Russia

打ち上げ Mar 23, 2023 から Plesetsk Cosmodrome

Loading…

次のパス (今後24時間)

TLE

最新Source: Space-Track

元期: Sep 14, 2026, 14:01 UTC

1 55978U 23040A   26257.58461214  .00002896  00000-0  11762-3 0  9991
2 55978  97.3416 184.7358 0003053 106.5721 253.5852 15.25370337193688

AllMySatでCOSMOS 2567をリアルタイム追跡

Download on the App Store